Regional Weather Roundup
Issued by NWS

Home | Current Version | Previous Version | Text Only | Print | Product List | Glossary Off
Versions: 1 2 3 4 5 6 7 8 9 10 11 12 13 14 15 16 17 18 19 20 21 22 23 24 25 26 27 28 29 30 31 32 33 34 35 36 37 38 39 40 41 42 43 44 45 46 47 48 49 50

000
ASUS45 KSLC 030410
RWRUT

UTAH REGIONAL WEATHER ROUNDUP
NATIONAL WEATHER SERVICE SALT LAKE CITY UT
1000 PM MDT WED SEP 02 2015

UTZ001>011-023>025-030500-

NORTHERN UTAH

CITY           SKY/WX    TMP DP  RH WIND       PRES   REMARKS
BRIGHAM CITY   CLEAR     74  42  31 SE7       29.84S
HILL AFB       PTCLDY    78  41  26 S10       29.89S
LOGAN          CLEAR     73  42  32 S7        29.86S
OGDEN          PTCLDY    76  44  32 S7        29.86S
PROVO AIRPORT  MOCLDY    73  43  33 S9        29.93R
SALT LAKE CITY MOCLDY    82  41  23 S15       29.86R
VERNAL         PTCLDY    73  39  29 CALM      30.02R
WENDOVER       PTCLDY    79  32  18 W7        29.81S
HEBER CITY     PTCLDY    73  34  23 SW5       30.01R
WEST JORDAN    CLEAR     81  37  21 S17       29.91R

$$

UTZ012>022-026-027-030500-

SOUTHERN/CENTRAL UTAH

CITY           SKY/WX    TMP DP  RH WIND       PRES   REMARKS
BLANDING       CLOUDY    70  52  51 S21G28    30.23R
BRYCE CANYON   MOCLDY    57  36  45 SW8       30.25S
CEDAR CITY     PTCLDY    68  37  32 S7        30.08R
DELTA          MOCLDY    78  33  19 S15G23    29.97R
HANKSVILLE     MOCLDY    81  39  22 S6        30.00R
MILFORD        PTCLDY    68  39  34 S10       30.02R
MOAB/CYNLANDS  CLEAR     74  45  35 SW7       29.98R
PRICE          MOCLDY    70  42  36 NE3       30.06R
ST GEORGE      PTCLDY    84  37  18 S9        29.91R
KANAB          MOCLDY    66  54  63 CALM      30.12R

$$

REGIONAL REPORTS     COLORADO/ARIZONA

CITY           SKY/WX    TMP DP  RH WIND       PRES   REMARKS
CRAIG, CO      PTCLDY    55  49  80 CALM      30.14R
GRAND JUNCTION PTCLDY    71  52  50 SE7       30.04R
RIFLE          PTCLDY    68  52  56 E7        30.10R
MONTROSE       MOCLDY    69  50  50 SE13      30.15R
CORTEZ         MOCLDY    68  51  54 SW25G33   30.18R
PAGE, AZ       MOCLDY    80  54  40 SW10      30.02R
GRAND CANYON   PTCLDY    57  44  62 CALM      30.24R
KINGMAN        PTCLDY    76  37  24 S12       29.98R
FLAGSTAFF      MOCLDY    58  41  53 CALM      30.29R

$$

REGIONAL REPORTS    NEVADA/IDAHO/WYOMING

CITY           SKY/WX    TMP DP  RH WIND       PRES   REMARKS
LAS VEGAS, NV  PTCLDY    91  35  13 S10G18    29.79R
ELY            CLEAR     72  29  20 S12       30.04R
ELKO           CLEAR     72  21  14 S8        29.87R
POCATELLO, ID  PTCLDY    69  45  41 E5        29.83S
BURLEY         PTCLDY    63  49  60 CALM      29.78R
EVANSTON, WY   PTCLDY    64  33  31 S12       30.11R
ROCK SPRINGS   MOCLDY    65  41  41 S8        30.11R
KEMMERER       PTCLDY    63  32  31 CALM      30.13S

$$



USA.gov is the U.S. government's official web portal to all federal, state and local government web resources and services.